Aérodrome :
LOGIN :

S'inscrire | Disclaimer

   EN    FR    IT 

 










Légende :    VFR   VFR Marginal   IFR   IFR Intensif   IFR Très Intensif
Visi : 
Plafond : 
>= 8 km
>= 3000ft
5 à 8 km
1000 à 3000 ft
1500m à 5 km
500 à 1000 ft
800 à 1500m
200 à 500 ft
< 800m
< 200 ft
Symboles :   Orages  Brouillard  Fortes neiges  Fortes précipitations  Vent > 20 kt
SIGMETs :   Divers  Orages  Givrage  Turbulence  Onde Orograph.  Cendres Volcan.







- Altitude de l'aérodrome : 56 ft


LPOV - Ovar Air Base

DERNIER METAR :
  • 191800Z 35007KT 9999 FEW007 16/14 Q1022

METARs EXPIRÉS :
  • 191700Z 34008KT 310V010 9999 FEW007 16/14 Q1022
  • 191600Z 34008KT 310V020 9000 FEW001 SCT007 16/13 Q1022

TAF TAF LPOV
Valide du 19 à 18h jusqu'au 20 à 18h UTC


191706Z 1918/2018 34008KT 9999 FEW007
BECMG 1922/1924 VRB02KT 7000 SCT005
PROB40 2001/2009 0800 FG BKN002
BECMG 2009/2011 33008KT 9999 FEW018
Pas de NOTAMs connus pour ce terrain.



MET'MAP, la Météo Aéronautique d'un coup d'oeil ! - Copyright ORBIFLY Décembre 2007 - Disclaimer

ORBIFLY MET'MAP TEAM :

Programmation & Développement : Alexandra Zaïnal
Conception & Développement : Baudouin d'Aumeries
Co-Programmation & Développement : Marc-Olivier Méhu
Soutien technique & logistique : Manuel Goepfert

Contact : metmap@orbifly.com




SOURCES & CREDITS :

   NOAA